User: anonymous   Login
Location: Natural Bridges National Monument
(37.6093°N, 109.9767°W)
Time: 19:10:03
(UTC-06:00)
Language:

Cosmos 1727 Rocket - Orbit

View from above orbital plane
View from above orbital plane
View from above satellite
View from above satellite

Ground track
Ground track

The orbit data is extracted from the following two-line orbital elements,

1 16511U 86008B   15246.83321341  .00000050  00000-0  36459-4 0  9995
2 16511  82.9483 343.6960 0023066 306.8783 172.3731 13.75800723486573
Epoch (UTC): 03 September 2015 19:59:49
Eccentricity: 0.0023066
inclination: 82.9483°
perigee height: 962 km
apogee height: 996 km
right ascension of ascending node: 343.6960°
argument of perigee: 306.8783°
revolutions per day: 13.75800723
mean anomaly at epoch: 172.3731°
orbit number at epoch: 48657

The dashed part of the orbit path shows where the satellite is in the earth's shadow,  

DLR